When you browse on this site, cookies collect data to enhance your experience and personalize the content and advertising you see.
Visit our Privacy Policy to learn more. By continuing to use the site, you agree to this use of cookies and data.
  • In Lithuania
  • List of Countries
  • For 7 days
  • Water Temperature
  • Weather Map
  • Weather Widgets
  • user-avatar
    Login

    Hourly Weather Batina

    Today, 29 March, Sunday

    Time Temperature Precipitation Wind Pressure Humidity
    00:00 +7°C° 0 mm 2 mps 668 mmHg 89%
    01:00 +6°C° 0.1 mm 2 mps 667 mmHg 90%
    02:00 +6°C° 0.1 mm 2 mps 667 mmHg 90%
    03:00 +6°C° 0.1 mm 2 mps 667 mmHg 91%
    04:00 +6°C° 0.6 mm 2 mps 666 mmHg 90%
    05:00 +5°C° 0.6 mm 2 mps 666 mmHg 90%
    06:00 +5°C° 0 mm 2 mps 666 mmHg 90%
    07:00 +5°C° 0.5 mm 2 mps 667 mmHg 86%
    08:00 +5°C° 0.5 mm 3 mps 667 mmHg 83%
    09:00 +5°C° 0.5 mm 3 mps 667 mmHg 79%
    10:00 +7°C° 0.1 mm 3 mps 667 mmHg 73%
    11:00 +8°C° 0.1 mm 3 mps 668 mmHg 68%
    12:00 +9°C° 0.1 mm 3 mps 668 mmHg 63%
    13:00 +8°C° 0.4 mm 4 mps 667 mmHg 62%
    14:00 +8°C° 0.4 mm 5 mps 667 mmHg 61%
    15:00 +9°C° 0.4 mm 7 mps 667 mmHg 60%
    16:00 +8°C° 0.1 mm 6 mps 667 mmHg 65%
    17:00 +7°C° 0.1 mm 5 mps 666 mmHg 69%
    18:00 +6°C° 0.1 mm 5 mps 666 mmHg 74%
    19:00 +6°C° 0 mm 4 mps 667 mmHg 77%
    20:00 +5°C° 0 mm 3 mps 667 mmHg 80%
    21:00 +6°C° 0 mm 2 mps 668 mmHg 83%
    22:00 +6°C° 0 mm 1 mps 668 mmHg 84%
    23:00 +6°C° 0 mm 1 mps 667 mmHg 85%

    Tomorrow, 30 March, Monday

    Time Temperature Precipitation Wind Pressure Humidity
    00:00 +6°C° 0 mm 1 mps 667 mmHg 85%
    01:00 +5°C° 0 mm 1 mps 667 mmHg 85%
    02:00 +5°C° 0 mm 1 mps 667 mmHg 86%
    03:00 +5°C° 0 mm 1 mps 666 mmHg 86%
    04:00 +5°C° 0 mm 1 mps 666 mmHg 86%
    05:00 +5°C° 0 mm 1 mps 666 mmHg 86%
    06:00 +4°C° 0 mm 0 mps 666 mmHg 86%
    07:00 +7°C° 0 mm 1 mps 667 mmHg 77%
    08:00 +8°C° 0 mm 1 mps 668 mmHg 68%
    09:00 +10°C° 0 mm 1 mps 668 mmHg 59%
    10:00 +11°C° 0 mm 1 mps 668 mmHg 55%
    11:00 +12°C° 0 mm 2 mps 668 mmHg 51%
    12:00 +12°C° 0 mm 3 mps 668 mmHg 47%
    13:00 +13°C° 0 mm 3 mps 668 mmHg 46%
    14:00 +13°C° 0 mm 4 mps 668 mmHg 46%
    15:00 +13°C° 0 mm 4 mps 667 mmHg 45%
    16:00 +12°C° 0 mm 4 mps 667 mmHg 50%
    17:00 +11°C° 0 mm 3 mps 667 mmHg 55%
    18:00 +10°C° 0 mm 3 mps 666 mmHg 60%
    19:00 +9°C° 0 mm 3 mps 667 mmHg 63%
    20:00 +9°C° 0 mm 2 mps 667 mmHg 66%
    21:00 +8°C° 0 mm 2 mps 667 mmHg 69%
    22:00 +8°C° 0 mm 2 mps 667 mmHg 68%
    23:00 +8°C° 0 mm 2 mps 667 mmHg 68%

    Day after tomorrow, 31 March, Tuesday

    Time Temperature Precipitation Wind Pressure Humidity
    00:00 +8°C° 0 mm 2 mps 667 mmHg 68%
    01:00 +8°C° 0 mm 2 mps 667 mmHg 68%
    02:00 +8°C° 0 mm 2 mps 667 mmHg 69%
    03:00 +8°C° 0 mm 2 mps 667 mmHg 69%
    04:00 +8°C° 0 mm 2 mps 667 mmHg 69%
    05:00 +8°C° 0 mm 3 mps 667 mmHg 68%
    06:00 +8°C° 0 mm 3 mps 667 mmHg 68%
    07:00 +9°C° 0 mm 3 mps 667 mmHg 62%
    08:00 +11°C° 0 mm 4 mps 668 mmHg 56%
    09:00 +12°C° 0 mm 5 mps 668 mmHg 49%
    10:00 +13°C° 0 mm 6 mps 669 mmHg 47%
    11:00 +14°C° 0 mm 7 mps 669 mmHg 44%
    12:00 +15°C° 0 mm 7 mps 669 mmHg 41%
    13:00 +15°C° 0 mm 7 mps 669 mmHg 42%
    14:00 +15°C° 0 mm 6 mps 668 mmHg 43%
    15:00 +15°C° 0 mm 6 mps 668 mmHg 44%
    16:00 +14°C° 0 mm 4 mps 667 mmHg 48%
    17:00 +12°C° 0 mm 3 mps 667 mmHg 53%
    18:00 +12°C° 0 mm 1 mps 666 mmHg 57%
    19:00 +12°C° 0 mm 2 mps 667 mmHg 57%
    20:00 +12°C° 0 mm 2 mps 667 mmHg 58%
    21:00 +10°C° 0 mm 3 mps 667 mmHg 58%
    22:00 +10°C° 0 mm 2 mps 667 mmHg 57%
    23:00 +10°C° 0 mm 2 mps 666 mmHg 56%

    1 April, Wednesday

    Time Temperature Precipitation Wind Pressure Humidity
    00:00 +10°C° 0 mm 2 mps 666 mmHg 56%
    01:00 +10°C° 0 mm 2 mps 666 mmHg 55%
    02:00 +11°C° 0 mm 1 mps 666 mmHg 54%
    03:00 +11°C° 0 mm 1 mps 666 mmHg 53%
    04:00 +11°C° 0 mm 1 mps 666 mmHg 54%
    05:00 +11°C° 0 mm 1 mps 666 mmHg 56%
    06:00 +11°C° 0 mm 1 mps 666 mmHg 57%
    07:00 +13°C° 0 mm 2 mps 666 mmHg 49%
    08:00 +15°C° 0 mm 2 mps 667 mmHg 41%
    09:00 +17°C° 0 mm 2 mps 668 mmHg 33%
    10:00 +18°C° 0 mm 3 mps 668 mmHg 31%
    11:00 +19°C° 0 mm 5 mps 668 mmHg 29%
    12:00 +21°C° 0 mm 6 mps 668 mmHg 27%
    13:00 +21°C° 0 mm 6 mps 667 mmHg 26%
    14:00 +21°C° 0 mm 6 mps 666 mmHg 25%
    15:00 +21°C° 0 mm 7 mps 666 mmHg 25%
    16:00 +20°C° 0 mm 6 mps 665 mmHg 29%
    17:00 +17°C° 0 mm 5 mps 665 mmHg 34%
    18:00 +15°C° 0 mm 4 mps 664 mmHg 39%
    19:00 +14°C° 0 mm 3 mps 664 mmHg 44%
    20:00 +14°C° 0 mm 2 mps 665 mmHg 49%
    21:00 +13°C° 0 mm 1 mps 665 mmHg 54%
    22:00 +13°C° 0 mm 1 mps 665 mmHg 57%
    23:00 +12°C° 0 mm 1 mps 665 mmHg 60%

    2 April, Thursday

    Time Temperature Precipitation Wind Pressure Humidity
    00:00 +10°C° 0 mm 2 mps 665 mmHg 63%
    01:00 +10°C° 0 mm 2 mps 664 mmHg 69%
    02:00 +9°C° 0 mm 2 mps 664 mmHg 75%
    03:00 +8°C° 0 mm 2 mps 663 mmHg 81%
    04:00 +8°C° 0 mm 2 mps 664 mmHg 81%
    05:00 +8°C° 0 mm 2 mps 664 mmHg 81%
    06:00 +8°C° 0 mm 2 mps 664 mmHg 81%
    07:00 +10°C° 0 mm 2 mps 664 mmHg 75%
    08:00 +12°C° 0 mm 2 mps 664 mmHg 69%
    09:00 +13°C° 0 mm 2 mps 665 mmHg 63%
    10:00 +14°C° 0 mm 2 mps 665 mmHg 57%
    11:00 +15°C° 0 mm 2 mps 665 mmHg 50%
    12:00 +16°C° 0 mm 2 mps 665 mmHg 43%
    13:00 +17°C° 0.2 mm 3 mps 665 mmHg 40%
    14:00 +17°C° 0.2 mm 4 mps 665 mmHg 37%
    15:00 +17°C° 0.2 mm 4 mps 664 mmHg 34%
    16:00 +15°C° 0 mm 4 mps 664 mmHg 38%
    17:00 +14°C° 0 mm 4 mps 664 mmHg 41%
    18:00 +13°C° 0 mm 4 mps 664 mmHg 44%
    19:00 +11°C° 0 mm 3 mps 664 mmHg 55%
    20:00 +10°C° 0 mm 3 mps 664 mmHg 66%
    21:00 +8°C° 0 mm 2 mps 665 mmHg 78%
    22:00 +8°C° 0 mm 2 mps 664 mmHg 80%
    23:00 +9°C° 0 mm 1 mps 664 mmHg 83%

    3 April, Friday

    Time Temperature Precipitation Wind Pressure Humidity
    00:00 +8°C° 0 mm 1 mps 664 mmHg 86%
    01:00 +8°C° 0 mm 1 mps 664 mmHg 85%
    02:00 +8°C° 0 mm 1 mps 663 mmHg 85%
    03:00 +6°C° 0 mm 0 mps 663 mmHg 84%
    04:00 +7°C° 0.1 mm 1 mps 663 mmHg 82%
    05:00 +6°C° 0.1 mm 2 mps 663 mmHg 80%
    06:00 +6°C° 0.1 mm 2 mps 664 mmHg 78%
    07:00 +7°C° 0 mm 3 mps 664 mmHg 71%
    08:00 +7°C° 0 mm 4 mps 664 mmHg 64%
    09:00 +8°C° 0 mm 6 mps 664 mmHg 57%
    10:00 +9°C° 0 mm 6 mps 665 mmHg 55%
    11:00 +10°C° 0 mm 6 mps 665 mmHg 52%
    12:00 +11°C° 0 mm 6 mps 665 mmHg 50%
    13:00 +11°C° 0 mm 7 mps 665 mmHg 51%
    14:00 +11°C° 0 mm 7 mps 665 mmHg 52%
    15:00 +11°C° 0 mm 7 mps 665 mmHg 53%
    16:00 +10°C° 0 mm 6 mps 665 mmHg 59%
    17:00 +9°C° 0 mm 5 mps 665 mmHg 66%
    18:00 +8°C° 0 mm 4 mps 666 mmHg 72%
    19:00 +7°C° 0 mm 4 mps 666 mmHg 76%
    20:00 +7°C° 0 mm 3 mps 667 mmHg 81%
    21:00 +5°C° 0 mm 3 mps 667 mmHg 85%
    22:00 +5°C° 0 mm 3 mps 667 mmHg 87%
    23:00 +4°C° 0 mm 3 mps 667 mmHg 88%
    Show more